KUIPER-00043

导读

KUIPER-00043是美国亚马逊柯伊伯(Kuiper)低轨宽带星座的一颗卫星,于2025年6月23日发射入轨。柯伊伯星座旨在为全球欠发达地区提供低时延高速卫星互联网接入,该卫星是星座组网部署过程中的一员,将参与验证低轨卫星通信技术,推进全球卫星宽带网络的建设,服务全球互联互通需求。

Basic Information
目录编号:
64504
目录名称:
KUIPER-00043
国际标识:
2025-134E
轨道中心:
EARTH
卫星名称:
KUIPER-00043
卫星全名:
KUIPER-00043
卫星状态:
在轨 (已飞行446 天)
发射日期:
2025-06-23 UTC
国别 :
美国 (US)
星等 :
--
This satellite is enrolled in the Space Conjunction Data Service (SCDS) and the current flight risk assessment level is: No High Risk
Orbit Information
数据来源 国际轨道数据 AOE轨道数据
星历时间 2026-09-11T16:54:21+0800
21小时前
查看轨道信息
2026-09-09T23:00:00+0800
2天前
查看轨道信息
半长轴 7007.689km 7007.713km
偏心率 0.0000752 0.0000716
轨道倾角 51.900° 51.901°
近地点辐角 105.160° 69.572°
升交点赤经 131.978° 139.699°
平近点角 254.944° 342.265°
近地点 629.025km 629.074km
远地点 630.079km 630.078km
周期 97.302分钟 97.303分钟
每日圈数 14.79928 14.799204
Detailed Information
使用方式:
暂无
2D Orbit Map
3D Orbit Map
Orbit Altitude Analysis Chart
Orbit Inclination Analysis Chart
Orbit Comprehensive Analysis Chart
View Comprehensive Chart
Conjunction Data List
Event ID Objects TCA Miss Dist (km) Collision Risk Probability Collision Risk Index (CRI) Action
CDM_260912-060704-346206-450427
2026-09-12T
06:07:18+0000
2.081 km
极远距离
2.54844E-6 低风险 0.43
Miss Distance Evolution Trend with All Objects
Collision Probability Evolution Trend with All Objects